Change the Weather History Date:

Friday, August 23, 2013

  Actual Average Record
Temperature  
Mean Temperature 58 °F -  
Max Temperature 66 °F 68 °F 86 °F (2012)
Min Temperature 51 °F 49 °F 46 °F (2005)
Degree Days  
Heating Degree Days 6    
Growing Degree Days 8 (Base 50)    
Moisture  
Dew Point 37 °F    
Average Humidity 38    
Maximum Humidity 54    
Minimum Humidity 19    
Precipitation  
Precipitation 0.00 in 0.09 in - ()
Sea Level Pressure  
Sea Level Pressure 29.82 in    
Wind  
Wind Speed 12 mph ()    
Max Wind Speed 26 mph    
Max Gust Speed 38 mph    
Visibility 12.6 miles    
Events      
Averages and records for this station are not official NWS values.
T = Trace of Precipitation, MM = Missing Value Source: Averaged Metar Reports

Daily Weather History Graph

Daily Weather History Graph

Search for Another Location

Airport or City:

Trip Planner

Search our weather history database for the weather conditions in past years. The results will help you decide how hot, cold, wet, or windy it might be!

Date:

Astronomy

Aug. 23, 2013 Rise Set
Actual Time 6:25 AM AEST 5:31 PM AEST
Civil Twilight 6:00 AM AEST 5:56 PM AEST
Nautical Twilight 5:30 AM AEST 6:25 PM AEST
Astronomical Twilight 5:01 AM AEST 6:54 PM AEST
Moon 7:57 PM AEST (8/23) 7:19 AM AEST (8/23)
Length of Visible Light 11h 56m
Length of Day
11h 05m
Waning Gibbous, 95% of the Moon is Illuminated
Aug 23
Waning Gibbous
Aug 28
Last Quarter
Sep 5
New
Sep 13
First Quarter
Sep 19
Full

Hourly Weather History & Observations

Time (AEST) Temp. Dew Point Humidity Pressure Visibility Wind Dir Wind Speed Gust Speed Precip Events Conditions
12:00 AM 55 °F 37 °F 39% 29.86 in 19 mi NNW 6.9 mph - -   Partly Cloudy
12:00 AM 55.4 °F 37.4 °F 51% 29.86 in - NNW 6.9 mph - N/A   Clear
12:30 AM 55.4 °F 35.6 °F 47% 29.83 in - NW 9.2 mph - N/A   Clear
1:00 AM 55 °F 36 °F 37% 29.85 in - NW 10.4 mph - -  
1:00 AM 55.4 °F 35.6 °F 47% 29.83 in - NW 10.4 mph - N/A   Clear
1:30 AM 53.6 °F 35.6 °F 51% 29.83 in - NW 9.2 mph - N/A   Clear
2:00 AM 54 °F 36 °F 39% 29.83 in - NNW 11.5 mph - -  
2:00 AM 53.6 °F 35.6 °F 51% 29.83 in - NNW 11.5 mph - N/A   Clear
2:30 AM 53.6 °F 35.6 °F 51% 29.80 in - NNW 11.5 mph - N/A   Clear
3:00 AM 53 °F 36 °F 42% 29.81 in 19 mi NNW 11.5 mph - -   Partly Cloudy
3:00 AM 53.6 °F 37.4 °F 54% 29.80 in - NNW 11.5 mph - N/A   Clear
4:00 AM 53.6 °F 35.6 °F 51% 29.80 in - NNW 9.2 mph - N/A   Clear
4:30 AM 53.6 °F 35.6 °F 51% 29.80 in - North 6.9 mph - N/A   Clear
5:00 AM 54 °F 35 °F 37% 29.81 in - NNE 5.8 mph - -  
5:00 AM 53.6 °F 35.6 °F 51% 29.80 in - NNE 5.8 mph - N/A   Clear
5:30 AM 55.4 °F 35.6 °F 47% 29.80 in - North 9.2 mph - N/A   Clear
6:00 AM 57 °F 35 °F 31% 29.81 in 19 mi NNW 10.4 mph - -   Scattered Clouds
6:00 AM 57.2 °F 33.8 °F 41% 29.80 in - NNW 10.4 mph - N/A   Clear
6:30 AM 57.2 °F 33.8 °F 41% 29.80 in 6.2 mi NNW 13.8 mph - N/A   Mostly Cloudy
7:00 AM 58 °F 35 °F 29% 29.82 in - NNW 12.7 mph - -  
7:00 AM 59.0 °F 35.6 °F 42% 29.80 in 6.2 mi NNW 12.7 mph - N/A   Mostly Cloudy
7:30 AM 59.0 °F 35.6 °F 42% 29.80 in - NNW 15.0 mph - N/A   Clear
8:00 AM 60 °F 36 °F 29% 29.82 in - NW 13.8 mph - -  
8:00 AM 60.8 °F 35.6 °F 39% 29.80 in 6.2 mi NW 13.8 mph - N/A   Mostly Cloudy
8:30 AM 60.8 °F 35.6 °F 39% 29.83 in 6.2 mi NNW 15.0 mph - N/A   Mostly Cloudy
9:00 AM 62.6 °F 37.4 °F 39% 29.80 in 6.2 mi NW 15.0 mph - N/A   Mostly Cloudy
9:30 AM 62.6 °F 35.6 °F 37% 29.80 in 6.2 mi NW 18.4 mph - N/A   Mostly Cloudy
10:00 AM 65 °F 36 °F 22% 29.82 in - NW 18.4 mph - -  
10:00 AM 64.4 °F 35.6 °F 34% 29.80 in 6.2 mi NW 18.4 mph - N/A   Mostly Cloudy
10:30 AM 66.2 °F 33.8 °F 30% 29.80 in - WNW 17.3 mph - N/A   Clear
11:00 AM 65 °F 34 °F 20% 29.82 in - WNW 17.3 mph - -  
11:00 AM 64.4 °F 33.8 °F 32% 29.80 in - WNW 17.3 mph - N/A   Clear
11:30 AM 66.2 °F 35.6 °F 32% 29.80 in - WNW 20.7 mph - N/A   Clear
11:51 AM 66.2 °F 35.6 °F 32% 29.80 in - West 17.3 mph 28.8 mph N/A   Clear
12:00 PM 66 °F 34 °F 19% 29.81 in 19 mi WNW 20.7 mph - -   Scattered Clouds
12:00 PM 66.2 °F 33.8 °F 30% 29.80 in - WNW 20.7 mph 32.2 mph N/A   Clear
12:30 PM 64.4 °F 33.8 °F 32% 29.77 in - WNW 21.9 mph - N/A   Clear
1:00 PM 64.4 °F 35.6 °F 34% 29.74 in - WNW 19.6 mph - N/A   Clear
1:02 PM 64.4 °F 35.6 °F 34% 29.74 in - WNW 19.6 mph 32.2 mph N/A   Clear
1:30 PM 66.2 °F 35.6 °F 32% 29.74 in - WNW 26.5 mph 38.0 mph N/A   Clear
2:00 PM 65 °F 36 °F 23% 29.78 in - WNW 20.7 mph - -  
2:00 PM 66.2 °F 35.6 °F 32% 29.77 in - WNW 20.7 mph 32.2 mph N/A   Clear
2:30 PM 66.2 °F 37.4 °F 35% 29.77 in - WNW 19.6 mph - N/A   Clear
2:52 PM 64.4 °F 35.6 °F 34% 29.77 in - WNW 21.9 mph 34.5 mph N/A   Clear
3:00 PM 65 °F 35 °F 21% 29.79 in 19 mi WNW 24.2 mph - -   Scattered Clouds
3:00 PM 64.4 °F 35.6 °F 34% 29.77 in - WNW 24.2 mph - N/A   Clear
3:30 PM 64.4 °F 37.4 °F 37% 29.77 in - WNW 16.1 mph - N/A   Clear
4:00 PM 64.4 °F 37.4 °F 37% 29.80 in - WNW 15.0 mph - N/A   Clear
4:30 PM 66.2 °F 39.2 °F 37% 29.80 in - WNW 12.7 mph - N/A   Clear
5:00 PM 65 °F 38 °F 26% 29.80 in - NW 12.7 mph - -  
5:00 PM 64.4 °F 37.4 °F 37% 29.80 in - NW 12.7 mph - N/A   Clear
5:30 PM 64.4 °F 39.2 °F 40% 29.80 in - WNW 11.5 mph - N/A   Clear
6:00 PM 63 °F 39 °F 29% 29.83 in 19 mi WNW 11.5 mph - -   Partly Cloudy
6:00 PM 62.6 °F 39.2 °F 42% 29.80 in - WNW 11.5 mph - N/A   Clear
6:30 PM 62.6 °F 37.4 °F 39% 29.83 in - West 16.1 mph - N/A   Clear
7:00 PM 63 °F 38 °F 28% 29.86 in - West 13.8 mph - -  
7:00 PM 62.6 °F 37.4 °F 39% 29.86 in - West 13.8 mph - N/A   Clear
7:10 PM 62.6 °F 39.2 °F 42% 29.86 in - WNW 17.3 mph 28.8 mph N/A   Clear
7:30 PM 62.6 °F 39.2 °F 42% 29.86 in - WNW 11.5 mph - N/A   Clear
8:00 PM 62 °F 39 °F 31% 29.88 in - WNW 8.1 mph - -  
8:00 PM 62.6 °F 39.2 °F 42% 29.86 in - WNW 8.1 mph - N/A   Clear
8:30 PM 60.8 °F 39.2 °F 45% 29.89 in - West 13.8 mph - N/A   Clear
9:00 PM 61 °F 40 °F 35% 29.92 in 19 mi West 11.5 mph - -   Partly Cloudy
9:00 PM 60.8 °F 41.0 °F 48% 29.92 in - West 11.5 mph - N/A   Clear
9:30 PM 60.8 °F 41.0 °F 48% 29.92 in - WNW 13.8 mph - N/A   Clear
10:00 PM 60 °F 40 °F 36% 29.93 in - WNW 13.8 mph - -  
10:00 PM 60.8 °F 41.0 °F 48% 29.92 in - WNW 13.8 mph - N/A   Clear
10:30 PM 60.8 °F 41.0 °F 48% 29.92 in - WNW 12.7 mph - N/A   Clear
11:00 PM 60 °F 41 °F 38% 29.94 in - West 17.3 mph - -  
11:00 PM 60.8 °F 41.0 °F 48% 29.92 in - West 17.3 mph - N/A   Clear
11:30 PM 60.8 °F 41.0 °F 48% 29.95 in - West 19.6 mph - N/A   Clear